Weather History for Rogers, AR

Change the Weather History Date:

Friday, November 8, 2013

  Actual Average Record
Temperature  
Mean Temperature 50 °F -  
Max Temperature 63 °F 56 °F 78 °F (2006)
Min Temperature 37 °F 40 °F 30 °F (2008)
Degree Days  
Heating Degree Days 15    
Moisture  
Dew Point 36 °F    
Average Humidity 61    
Maximum Humidity 93    
Minimum Humidity 31    
Precipitation  
Precipitation 0.00 in - - ()
Sea Level Pressure  
Sea Level Pressure 30.23 in    
Wind  
Wind Speed 8 mph (SSE)    
Max Wind Speed 21 mph    
Max Gust Speed 26 mph    
Visibility 10 miles    
Events      
Averages and records for this station are not official NWS values.
T = Trace of Precipitation, MM = Missing Value Source: NWS Daily Summary

Daily Weather History Graph

Daily Weather History Graph

Search for Another Location

Airport:

Trip Planner

Search our weather history database for the weather conditions in past years. The results will help you decide how hot, cold, wet, or windy it might be!

Date:

Astronomy

Nov. 08, 2013 Rise Set
Actual Time 6:46 AM CST 5:13 PM CST
Civil Twilight 6:19 AM CST 5:40 PM CST
Nautical Twilight 5:48 AM CST 6:10 PM CST
Astronomical Twilight 5:18 AM CST 6:41 PM CST
Moon 11:43 AM CST (11/8) 10:34 PM CST (11/8)
Length of Visible Light 11h 20m
Length of Day
10h 26m
Waxing Crescent, 33% of the Moon is Illuminated
Nov 8
Waxing Crescent
Nov 9
First Quarter
Nov 17
Full
Nov 25
Last Quarter
Dec 2
New

Hourly Weather History & Observations

Time (CST) Temp. Windchill Dew Point Humidity Pressure Visibility Wind Dir Wind Speed Gust Speed Precip Events Conditions
12:57 AM 37.9 °F - 35.1 °F 89% 30.37 in 10.0 mi Calm Calm - N/A   Clear
1:57 AM 39.0 °F 36.8 °F 37.0 °F 93% 30.36 in 10.0 mi ESE 3.5 mph - N/A   Clear
2:57 AM 37.9 °F 35.5 °F 36.0 °F 93% 30.35 in 10.0 mi ESE 3.5 mph - N/A   Clear
3:57 AM 39.0 °F 35.7 °F 37.0 °F 93% 30.33 in 10.0 mi East 4.6 mph - N/A   Clear
4:57 AM 39.0 °F 34.8 °F 35.1 °F 86% 30.33 in 10.0 mi SE 5.8 mph - N/A   Clear
5:57 AM 37.9 °F 33.5 °F 35.1 °F 89% 30.34 in 7.0 mi SE 5.8 mph - N/A   Clear
6:57 AM 37.9 °F 32.7 °F 35.1 °F 89% 30.34 in 10.0 mi SE 6.9 mph - N/A   Clear
7:57 AM 42.1 °F 37.7 °F 36.0 °F 79% 30.34 in 10.0 mi SE 6.9 mph - N/A   Clear
8:57 AM 48.9 °F - 37.0 °F 64% 30.32 in 10.0 mi SSE 8.1 mph - N/A   Clear
9:57 AM 55.9 °F - 37.9 °F 51% 30.31 in 10.0 mi SSE 11.5 mph - N/A   Clear
10:57 AM 60.1 °F - 36.0 °F 41% 30.29 in 10.0 mi South 17.3 mph - N/A   Clear
11:57 AM 62.1 °F - 33.1 °F 34% 30.24 in 10.0 mi South 20.7 mph 26.5 mph N/A   Clear
12:57 PM 63.0 °F - 32.0 °F 31% 30.20 in 10.0 mi South 20.7 mph 25.3 mph N/A   Clear
1:57 PM 63.0 °F - 32.0 °F 31% 30.19 in 10.0 mi South 15.0 mph 24.2 mph N/A   Clear
2:57 PM 62.1 °F - 32.0 °F 32% 30.16 in 10.0 mi SSW 15.0 mph 20.7 mph N/A   Clear
3:57 PM 61.0 °F - 36.0 °F 39% 30.14 in 10.0 mi South 19.6 mph 24.2 mph N/A   Clear
4:57 PM 57.9 °F - 34.0 °F 41% 30.12 in 10.0 mi South 18.4 mph 26.5 mph N/A   Clear
5:57 PM 55.0 °F - 37.0 °F 51% 30.11 in 10.0 mi SSE 13.8 mph - N/A   Clear
6:57 PM 54.0 °F - 37.9 °F 55% 30.11 in 10.0 mi South 12.7 mph - N/A   Clear
7:57 PM 54.0 °F - 37.0 °F 53% 30.10 in 10.0 mi South 12.7 mph - N/A   Clear
8:57 PM 53.1 °F - 37.9 °F 57% 30.11 in 10.0 mi South 15.0 mph 21.9 mph N/A   Clear
9:57 PM 52.0 °F - 37.0 °F 57% 30.12 in 10.0 mi South 11.5 mph - N/A   Clear
10:57 PM 52.0 °F - 37.9 °F 59% 30.14 in 10.0 mi SSW 8.1 mph - N/A   Clear
11:57 PM 48.0 °F - 37.9 °F 68% 30.14 in 10.0 mi South 6.9 mph - N/A   Clear